Other Public Products
Issued by NWS Grand Forks, ND

Home | Current Version | Previous Version | Text Only | Print | Product List | Glossary On
Versions: 1 2 3 4 5 6 7 8 9 10 11 12 13 14 15 16 17 18 19 20 21 22 23 24 25 26 27 28 29 30 31 32 33 34 35 36 37 38 39 40 41 42 43 44 45 46 47 48 49 50
000
FPUS83 KFGF 280431
OPUFGF
PRAIRIE TO PINES WEATHER ROUNDUP
NATIONAL WEATHER SERVICE EASTERN NORTH DAKOTA/GRAND FORKS ND
1100 PM CDT WED JUL 27 2016

 **SATELLITE DATA USED TO AUGMENT SKY COVER AT AUTOMATED STATIONS**
 *****  WEATHER ACROSS EASTERN NORTH DAKOTA  *****

CITY           SKY/WX    TMP DP  RH WIND       PRES   REMARKS
GRAND FORKS    PTCLDY    65  57  75 N12       30.09R
GRAND FORKS AF CLOUDY    64  57  79 N9        30.10R
GRAND CITY NWS   N/A     63 N/A N/A N5          N/A
BUXTON           N/A     65  63  92 NW9         N/A
DEVILS LAKE    CLOUDY    60  57  89 NE7       30.15R
FARGO          CLOUDY    66  60  81 N10       30.05S
WAHPETON ARPT  CLOUDY    63  57  82 NW6       30.05S
$$

 *****  WEATHER ACROSS CENTRAL AND WESTERN NORTH DAKOTA  *****

CITY           SKY/WX    TMP DP  RH WIND       PRES   REMARKS
JAMESTOWN      CLOUDY    62  59  90 NE6       30.11S
BISMARCK       LGT RAIN  67  63  87 E5        30.13R
MINOT          CLOUDY    68  61  78 N3        30.14R
MINOT AFB      MOCLDY    66  56  70 E7        30.14R
GARRISON         N/A     66  62  87 E3        30.15R
WILLISTON      PTCLDY    64  60  87 NE8       30.15R
DICKINSON      MOCLDY    61  60  97 E8        30.14R
HETTINGER      PTCLDY    59  56  89 CALM      30.18R
$$

 *****  OTHER OBSERVATIONS NORTHEAST NORTH DAKOTA  *****

CITY           SKY/WX    TMP DP  RH WIND       PRES   REMARKS
WALHALLA       FAIR      57  55  94 NW5       30.15R
LANGDON        FAIR      59  55  88 NE8       30.16S
CAVALIER       FAIR      63  57  82 N6        30.13S
GRAFTON        FAIR      63  59  88 N12       30.13R
CANDO          FAIR      59  57  94 NE6       30.18R
FORT TOTTEN      N/A     63  55  76 E2        29.95S
ROLLA          FAIR      54  54 100 N3        30.19R
RUGBY          NOT AVBL
 ***** THE ABOVE OBSERVATIONS ARE NON NWS ARE NOT QUALITY
        CONTROLLED AND MAY MIS-REPORT RAIN FOR SNOW...
$$

 *****  OTHER OBSERVATIONS SOUTHEAST NORTH DAKOTA *****

CITY           SKY/WX    TMP DP  RH WIND       PRES   REMARKS
COOPERSTOWN    NOT AVBL
VALLEY CITY    FAIR      59  59 100 N3        30.12F
OAKES            N/A    N/A N/A N/A MISG        N/A
GWINNER        FAIR      63  57  82 N8        30.08F
SHEYENNE NWR     N/A     65  57  76 N5        29.95S
BUFFALO          N/A     61  57  86 N8          N/A
WYNDMERE         N/A     64  61  88 NW5         N/A
 ***** THE ABOVE OBSERVATIONS ARE NON NWS ARE NOT QUALITY
       CONTROLLED AND MAY MIS-REPORT RAIN FOR SNOW...
$$

  *****  WEATHER ACROSS NORTHERN MINNESOTA  *****

CITY           SKY/WX    TMP DP  RH WIND       PRES   REMARKS
FLAG ISLAND    CLEAR     64  54  68 NE10      30.11R
WARROAD        CLEAR     64  57  77 NE10G17   30.12R
ROSEAU         CLEAR     61  55  82 N5        30.12R
HALLOCK        CLEAR     63  57  82 N8        30.11S
THF RVR FALLS  CLOUDY    68  60  75 NE8       30.10R
HALSTAD          N/A     65  59  80 N9          N/A
FOSSTON        CLOUDY    63  61  94 N6        30.09R
BAUDETTE       CLEAR     63  55  75 NE8       30.10R
WASKISH        MOCLDY    63  57  82 NE3       30.09R
CROOKSTON      PTCLDY    64  61  88 N9        30.08S
$$
  *****  WEATHER ACROSS CENTRAL AND WEST MINNESOTA  *****

CITY           SKY/WX    TMP DP  RH WIND       PRES   REMARKS
BEMIDJI        MOCLDY    64  61  88 CALM      30.07S
PARK RAPIDS    CLOUDY    66  62  87 CALM      30.07R
WADENA         CLOUDY    64  61  88 NE3       30.05F
DETROIT LAKES  CLOUDY    66  63  88 E5        30.07S
MOORHEAD       CLOUDY    64  61  88 N7        30.06S
FERGUS FALLS   CLOUDY    64  59  82 N3        30.06S
ELBOW LAKE     FAIR      64  60  86 N3        30.04S
MORRIS MN      CLEAR     63  59  88 NW6       30.03S
STAPLES        CLOUDY    64  61  88 CALM      30.05F
WHEATON        CLOUDY    64  61  88 NW5       30.06S
$$
  *****  WEATHER ELSEWHERE ACROSS MINNESOTA  *****

CITY           SKY/WX    TMP DP  RH WIND       PRES   REMARKS
DULUTH         CLEAR     59  57  93 E9        30.04S
INTRNTL FALLS  CLEAR     65  54  67 NE3       30.08R
ELY            PTCLDY    57  57 100 CALM      30.07R
CLOQUET        CLEAR     57  55  94 CALM      30.05R
BRAINERD       CLOUDY    64  62  93 CALM      30.06R
HIBBING        FOG       56  56 100 NW3       30.06R VSB 1/4
ALEXANDRIA     CLOUDY    68  62  81 NE3       30.06S
SAINT CLOUD    CLEAR     64  63  96 NE6       30.03S
MINNEAPOLIS    CLOUDY    70  63  78 N12       29.98S
$$

  *****  WEATHER ACROSS SOUTH DAKOTA  *****

CITY           SKY/WX    TMP DP  RH WIND       PRES   REMARKS
SIOUX FALLS    CLOUDY    70  63  78 N7        30.04R
BROOKINGS      PTCLDY    66  60  81 NE3       30.06S
WATERTOWN      CLOUDY    63  58  83 N6        30.07S
HURON          CLOUDY    70  61  73 NE6       30.05R
SISSETON         N/A     61  59  93 N7        30.05S
ABERDEEN       MOCLDY    66  61  84 NE6       30.08R
MITCHELL       CLOUDY    72  63  73 NE7       30.04R
PIERRE         PTCLDY    67  62  84 CALM      30.09R
MOBRIDGE       PTCLDY    70  59  68 E9        30.09R
RAPID CITY     PTCLDY    65  59  81 E8        30.16R
$$

  *****  SOME WEATHER IN NEARBY STATES *****

CITY           SKY/WX    TMP DP  RH WIND       PRES   REMARKS
GLASGOW MT     CLOUDY    62  59  90 NE5       30.15R
GREAT FALLS MT MOCLDY    69  51  52 N15G29    30.21R
CHEYENNE WY    CLEAR     65  58  78 E6        30.28R
SCOTTSBLUFF NE MOCLDY    74  58  57 N20G28    30.21R THUNDER
OMAHA NE       PTCLDY    76  70  82 W3        29.98R
DES MOINES IA  PTCLDY    78  69  73 S3        29.95S
DAVENPORT IA   CLEAR     73  69  87 SE3       29.94S
CHICAGO IL     MOCLDY    77  65  66 VRB5      29.95S
EAU CLAIRE WI  CLOUDY    66  65  96 NE5       29.96R
LA CROSSE WI   CLOUDY    74  68  81 E7        29.92S
$$

  *****  SOME NATIONAL WEATHER *****

CITY           SKY/WX    TMP DP  RH WIND       PRES   REMARKS
LA GUARDIA NY  MOCLDY    81  70  69 S7        29.90S
RALEIGH NC     MOCLDY    77  72  84 CALM      29.96F
ATLANTA GA     PTCLDY    80  67  64 VRB5      30.05S
NEW ORLEANS LA PTCLDY    81  73  76 S6        30.03R
OKLAHOMA CITY  PTCLDY    75  73  93 CALM      29.98R
ALBUQUERQUE NM MOCLDY    82  41  23 E8        30.16R
SALT LAKE CITY CLEAR     89  30  12 S8        30.01S
LOS ANGELES CA PTCLDY    71  64  78 SW9       29.88S
BOISE ID       CLEAR     87  43  21 NW7       29.93R
SEATTLE WA     PTCLDY    77  59  53 N6        30.10R
$$

*** WEATHER ACROSS MANITOBA...SASKATCHEWAN AND ONTARIO ***
                ***ONTARIO***

CITY           SKY/WX    TMP DP  RH WIND       PRES   REMARKS
GERALDTON      PTCLDY    59  50  72 N5        30.06R
THUNDER BAY    CLEAR     57  55  94 NW3       30.04R
SIOUX LOOKOUT  PTCLDY    59  52  77 N6        30.11R
TORONTO        MOCLDY    77  63  61 VRB2      29.93R
BIG TROUT LK   NOT AVBL
PICKLE LAKE    NOT AVBL
DRYDEN         CLEAR     57  52  82 N7        30.11R
KENORA         PTCLDY    57  50  77 NE5       30.13S
$$
                *** MANITOBA***

CITY           SKY/WX    TMP DP  RH WIND       PRES   REMARKS
BRANDON        MOCLDY    55  54  94 CALM      30.16R
DAUPHIN        CLEAR     54  52  94 SW5       30.15R
ISLAND LAKE    MOCLDY    61  57  88 VRB2      30.11S
PILOT MOUND      N/A     57  54  88 NE3         N/A
THE PAS        PTCLDY    64  57  77 SE8       30.08S
THOMPSON       PTCLDY    63  52  67 S3        30.06F
WINNIPEG       CLEAR     55  52  88 N3        30.15R
LYNN LAKE      MOCLDY    63  57  82 MISG      30.05S
CHURCHILL      MOCLDY    57  50  77 S14       30.02S
GILLAM         PTCLDY    57  46  67 S5        30.07F
$$
                ***SASKATCHEWAN***

CITY           SKY/WX    TMP DP  RH WIND       PRES   REMARKS
ESTEVAN        MOCLDY    63  57  82 E6        30.17R
KINDERSLEY     PTCLDY    61  57  88 SE7       30.17R
LLOYDMINSTER   PTCLDY    64  59  82 W7        30.12R
PRINCE ALBERT  PTCLDY    68  59  73 S7        30.10R
REGINA         PTCLDY    61  55  82 SE7       30.17R
YORKTON        CLEAR     61  52  72 S2        30.17R HC1F1C2F2C3F3C4F4C5F5C6F6C7F7C8F8C9F9CaFaCbFbCcFcCdFdCe!


USA.gov is the U.S. government's official web portal to all federal, state and local government web resources and services.